Regional Weather Roundup
Issued by NWS State College, PA

Home | Current Version | Previous Version | Text Only | Print | Product List | Glossary On
Versions: 1 2 3 4 5 6 7 8 9 10 11 12 13 14 15 16 17 18 19 20 21 22 23 24 25 26 27 28 29 30 31 32 33 34 35 36 37 38 39 40 41 42 43 44 45 46 47 48 49 50
000
ASUS41 KCTP 290203
RWRCTP

REGIONAL WEATHER ROUNDUP
NATIONAL WEATHER SERVICE STATE COLLEGE PA
1000 PM EDT TUE JUL 28 2015

Note: "fair" indicates few or no clouds below 12,000 feet with no
significant weather and/or obstructions to visibility.

* = STATION THAT DOES NOT REPORT PRECIPITATION /E.G. RAIN...SNOW...ETC/
    THUNDER OR FOG.

PAZ002>004-007>009-013>016-020>023-029>032-290300-
WESTERN PENNSYLVANIA

CITY           SKY/WX    TMP DP  RH WIND       PRES   REMARKS
ERIE           PTCLDY    76  61  59 CALM      30.00R
MEADVILLE      PTCLDY    76  60  57 NE5       30.04R
FRANKLIN*      PTCLDY    72  61  68 N5        30.05R
NEW CASTLE     FAIR      71  65  81 CALM      30.01R
BEAVER COUNTY  NOT AVBL
BUTLER*        PTCLDY    73  61  64 E5        30.03R
PITTSBURGH INT MOCLDY    79  63  57 E6        30.00R
PITTSBURGH     PTCLDY    80  60  50 E6        30.00R
INDIANA*       CLOUDY    75  63  64 CALM      30.07R
LATROBE        CLEAR     77  72  83 CALM      30.02R
WASHINGTON CO* NOT AVBL
$$

PAZ004>006-010>012-017>019-024>028-033>037-041-042-045-046-049>053-290300-
CENTRAL PENNSYLVANIA

CITY           SKY/WX    TMP DP  RH WIND       PRES   REMARKS
BRADFORD       CLEAR     66  61  84 CALM      30.08R
DUBOIS         CLEAR     76  63  64 SE5       30.05R
CLEARFIELD     CLEAR     69  63  81 N6        30.05R
JOHNSTOWN      CLEAR     73  62  68 E5        30.08S
ALTOONA        CLEAR     69  65  86 SE3       30.05S
STATE COLLEGE  NOT AVBL
WILLIAMSPORT   CLEAR     73  65  75 CALM      29.99R
SELINSGROVE    CLEAR     69  67  93 CALM      30.00S
FT INDIANTOWN  CLEAR     72  69  91 CALM      29.99F
CAPITAL CITY   CLEAR     76  66  71 CALM      29.99R
HARRISBURG     PTCLDY    77  71  82 CALM      29.98R
YORK           CLEAR     71  68  90 CALM      30.00R
$$

PAZ038>040-043-044-047-048-054-055-060>062-067>071-290300-
EASTERN PENNSYLVANIA

CITY           SKY/WX    TMP DP  RH WIND       PRES   REMARKS
SCRANTON       CLEAR     77  65  66 SE6       30.02R
MOUNT POCONO   CLEAR     68  64  87 NW3       30.08S
ALLENTOWN      CLEAR     77  67  71 CALM      29.99R
QUAKERTOWN*    CLEAR     73  66  78 CALM      30.02R
READING        CLEAR     80  66  62 SW3       29.99R
LANCASTER      CLEAR     80  66  62 CALM      30.00R
COATESVILLE    CLEAR     77  72  83 CALM      30.03R
POTTSTOWN      CLEAR     76  70  82 CALM      30.01R
BLUE BELL      CLEAR     72  68  88 CALM      29.99R
DOYLESTOWN     CLEAR     74  64  71 CALM      30.00R
WILLOW GROVE   NOT AVBL
NORTH PHILA    CLEAR     82  69  64 SW7       30.00R
PHILADELPHIA   PTCLDY    82  71  69 SW6       30.00R
$$


USA.gov is the U.S. government's official web portal to all federal, state and local government web resources and services.